Location: Hylvaty SDH
(49.9612°N, 16.4057°E)
Time: 12:20:22
(UTC+01:00)

A-11 Canister half - Pass Details

Date: 03 October 2020
Orbit: 1526 x 1683 km, 47.3° (Epoch: 28 October)

Event Time Altitude Azimuth Distance (km) Brightness Sun altitude
Rises 21:09:43 0° 207° (SSW) 4,669 11.6 -26.2°
Reaches altitude 10° 21:13:07 10° 199° (SSW) 3,685 10.9 -26.7°
Enters shadow 21:17:42 26° 174° (S) 2,633 9.9 -27.3°
Maximum altitude 21:21:03 33° 139° (SE) 2,345 - -27.8°
Drops below altitude 10° 21:29:02 10° 80° (E) 3,728 - -28.9°
Sets 21:32:29 0° 72° (ENE) 4,731 - -29.4°
